Change the Weather History Date:

Monday, August 11, 2014

  Actual Average Record
Temperature  
Mean Temperature 67 °F 72 °F  
Max Temperature 72 °F 82 °F 98 °F (1900)
Min Temperature 62 °F 62 °F 48 °F (1972)
Degree Days  
Heating Degree Days 0 0  
Month to date heating degree days 0 0  
Since 1 June heating degree days 20 42  
Since 1 July heating degree days 11 4  
Cooling Degree Days 2 7  
Month to date cooling degree days 59 81  
Year to date cooling degree days 506 524  
Since 1 June cooling degree days 432 472  
Growing Degree Days 17 (Base 50)    
Moisture  
Dew Point 63 °F    
Average Humidity 87    
Maximum Humidity 100    
Minimum Humidity 73    
Precipitation  
Precipitation 0.83 in 0.11 in 1.82 in (1914)
Month to date precipitation 1.00 1.31  
Year to date precipitation 25.33 24.54  
Snow  
Snow 0.00 in 0.00 in 0.00 in (2002)
Month to date snowfall 0.0 0.0  
Since 1 July snowfall 0.0 0.0  
Snow Depth 0.00 in    
Sea Level Pressure  
Sea Level Pressure 29.97 in    
Wind  
Wind Speed 9 mph (SE)    
Max Wind Speed 16 mph    
Max Gust Speed 21 mph    
Visibility 8 miles    
Events Rain , Thunderstorm    
T = Trace of Precipitation, MM = Missing Value Source: NWS Daily Summary

Daily Weather History Graph

Daily Weather History Graph

Search for Another Location

Airport or City:

Trip Planner

Search our weather history database for the weather conditions in past years. The results will help you decide how hot, cold, wet, or windy it might be!

Date:

Astronomy

Aug. 11, 2014 Rise Set
Actual Time 6:27 AM EDT 8:23 PM EDT
Civil Twilight 5:58 AM EDT 8:53 PM EDT
Nautical Twilight 5:21 AM EDT 9:29 PM EDT
Astronomical Twilight 4:42 AM EDT 10:08 PM EDT
Moon 8:50 PM EDT (8/11) 7:31 AM EDT (8/11)
Length of Visible Light 14h 55m
Length of Day
13h 56m
Full, 99% of the Moon is Illuminated
Aug 11
Full
Aug 17
Last Quarter
Aug 25
New
Sep 2
First Quarter
Sep 8
Full

Hourly Weather History & Observations

Time (EDT) Temp. Dew Point Humidity Pressure Visibility Wind Dir Wind Speed Gust Speed Precip Events Conditions
1:51 AM 71.1 °F 64.0 °F 78% 30.06 in 10.0 mi SSE 4.6 mph - N/A   Scattered Clouds
2:51 AM 69.1 °F 63.0 °F 81% 30.05 in 10.0 mi ESE 5.8 mph - N/A   Mostly Cloudy
3:51 AM 69.1 °F 62.1 °F 78% 30.04 in 10.0 mi ESE 6.9 mph - N/A   Mostly Cloudy
4:51 AM 69.8 °F 62.6 °F 78% 30.03 in 10.0 mi SE 6.9 mph - N/A   Overcast
5:51 AM 69.1 °F 61.0 °F 75% 30.02 in 10.0 mi SE 5.8 mph - N/A   Overcast
6:51 AM 69.1 °F 61.0 °F 75% 30.02 in 10.0 mi ESE 6.9 mph - N/A   Overcast
7:51 AM 70.0 °F 61.0 °F 73% 30.02 in 10.0 mi SE 8.1 mph - N/A   Overcast
8:51 AM 70.0 °F 62.1 °F 76% 30.02 in 10.0 mi SE 6.9 mph - N/A   Overcast
9:51 AM 70.0 °F 63.0 °F 78% 30.01 in 8.0 mi ESE 8.1 mph - 0.00 in Rain Light Rain
10:39 AM 69.1 °F 64.9 °F 87% 30.02 in 3.0 mi SSE 8.1 mph - 0.01 in Rain Light Rain
10:43 AM 68.0 °F 64.9 °F 90% 30.02 in 2.0 mi SSE 6.9 mph - 0.01 in Rain Light Rain
10:51 AM 68.0 °F 64.9 °F 90% 30.03 in 1.0 mi SSE 4.6 mph - 0.02 in Rain Rain
11:10 AM 68.0 °F 64.9 °F 90% 30.02 in 3.0 mi SE 9.2 mph - 0.08 in Rain Light Rain
11:51 AM 66.9 °F 66.0 °F 97% 30.02 in 3.0 mi SE 10.4 mph - 0.13 in Rain Light Rain
12:05 PM 66.2 °F 66.2 °F 100% 30.02 in 3.0 mi SE 9.2 mph - N/A Rain Light Rain
12:51 PM 66.9 °F 64.9 °F 93% 30.02 in 3.0 mi SSE 10.4 mph - 0.17 in Rain Light Rain
1:41 PM 68.0 °F 66.0 °F 93% 30.00 in 7.0 mi SE 10.4 mph - 0.03 in   Overcast
1:51 PM 68.0 °F 66.0 °F 93% 29.99 in 8.0 mi SE 9.2 mph - 0.03 in   Overcast
2:51 PM 69.1 °F 66.0 °F 90% 29.97 in 10.0 mi SE 12.7 mph - N/A   Overcast
3:41 PM 70.0 °F 64.9 °F 84% 29.96 in 10.0 mi SE 11.5 mph 20.7 mph N/A   Overcast
3:51 PM 70.0 °F 64.9 °F 84% 29.96 in 10.0 mi SE 13.8 mph - N/A   Overcast
4:45 PM 71.6 °F 64.4 °F 78% 29.93 in 10.0 mi SE 12.7 mph - 0.00 in   Mostly Cloudy
4:51 PM 71.1 °F 64.9 °F 81% 29.94 in 10.0 mi SE 11.5 mph - 0.00 in   Overcast
5:39 PM 71.6 °F 66.2 °F 83% 29.92 in 10.0 mi SE 11.5 mph - N/A   Overcast
5:51 PM 72.0 °F 64.9 °F 78% 29.92 in 10.0 mi SE 15.0 mph 21.9 mph 0.01 in   Overcast
6:51 PM 71.1 °F 64.0 °F 78% 29.90 in 10.0 mi SE 11.5 mph - N/A   Overcast
7:15 PM 70.0 °F 63.0 °F 78% 29.90 in 10.0 mi ESE 12.7 mph - N/A   Overcast
7:41 PM 69.1 °F 61.0 °F 75% 29.90 in 10.0 mi ESE 12.7 mph - N/A   Overcast
7:51 PM 69.1 °F 61.0 °F 75% 29.91 in 10.0 mi SE 11.5 mph - N/A   Overcast
8:51 PM 66.9 °F 59.0 °F 76% 29.89 in 10.0 mi SE 12.7 mph - 0.00 in   Overcast
9:51 PM 66.0 °F 57.9 °F 75% 29.90 in 10.0 mi SE 9.2 mph - 0.00 in Rain Light Rain
10:19 PM 64.9 °F 60.1 °F 84% 29.89 in 8.0 mi SE 10.4 mph - 0.02 in Rain , Thunderstorm Light Thunderstorms and Rain
10:51 PM 62.6 °F 60.8 °F 94% 29.89 in 4.0 mi SE 8.1 mph - N/A Rain , Thunderstorm Thunderstorms and Rain
11:04 PM 62.1 °F 61.0 °F 96% 29.87 in 3.0 mi ESE 10.4 mph - 0.20 in Rain Light Rain
11:19 PM 63.0 °F 61.0 °F 93% 29.87 in 9.0 mi SE 9.2 mph - 0.26 in Rain Light Rain